When you browse on this site, cookies collect data to enhance your experience and personalize the content and advertising you see.
Visit our Privacy Policy to learn more. By continuing to use the site, you agree to this use of cookies and data.
  • In Lithuania
  • List of Countries
  • For 7 days
  • Water Temperature
  • Weather Map
  • Weather Widgets
  • user-avatar
    Login

    Hourly Weather Kalemie

    Today, 1 June, Monday

    Time Temperature Precipitation Wind Pressure Humidity
    00:00 +22°C° 0 mm 0 mps 707 mmHg 85%
    01:00 +21°C° 0 mm 0 mps 706 mmHg 85%
    02:00 +21°C° 0 mm 0 mps 706 mmHg 87%
    03:00 +22°C° 0 mm 1 mps 706 mmHg 88%
    04:00 +22°C° 0 mm 1 mps 706 mmHg 90%
    05:00 +22°C° 0 mm 1 mps 706 mmHg 91%
    06:00 +23°C° 0 mm 1 mps 707 mmHg 87%
    07:00 +24°C° 0 mm 2 mps 707 mmHg 82%
    08:00 +26°C° 0 mm 2 mps 708 mmHg 78%
    09:00 +28°C° 0 mm 2 mps 708 mmHg 69%
    10:00 +31°C° 0 mm 2 mps 708 mmHg 59%
    11:00 +34°C° 0 mm 2 mps 708 mmHg 49%
    12:00 +34°C° 0 mm 2 mps 708 mmHg 49%
    13:00 +35°C° 0 mm 2 mps 707 mmHg 49%
    14:00 +34°C° 0 mm 2 mps 707 mmHg 51%
    15:00 +34°C° 0.2 mm 2 mps 707 mmHg 55%
    16:00 +32°C° 0.2 mm 1 mps 706 mmHg 60%
    17:00 +31°C° 0.2 mm 1 mps 706 mmHg 65%
    18:00 +29°C° 0.2 mm 1 mps 706 mmHg 70%
    19:00 +27°C° 0.2 mm 1 mps 706 mmHg 76%
    20:00 +26°C° 0.2 mm 1 mps 706 mmHg 81%
    21:00 +25°C° 0.6 mm 1 mps 706 mmHg 83%
    22:00 +24°C° 0.6 mm 1 mps 706 mmHg 86%
    23:00 +22°C° 0.6 mm 0 mps 707 mmHg 88%

    Tomorrow, 2 June, Tuesday

    Time Temperature Precipitation Wind Pressure Humidity
    00:00 +21°C° 0.1 mm 0 mps 706 mmHg 88%
    01:00 +21°C° 0.1 mm 0 mps 706 mmHg 89%
    02:00 +21°C° 0.1 mm 0 mps 705 mmHg 89%
    03:00 +23°C° 0 mm 1 mps 705 mmHg 89%
    04:00 +23°C° 0 mm 1 mps 705 mmHg 90%
    05:00 +23°C° 0 mm 1 mps 705 mmHg 90%
    06:00 +24°C° 0 mm 2 mps 706 mmHg 86%
    07:00 +25°C° 0 mm 2 mps 706 mmHg 82%
    08:00 +27°C° 0 mm 2 mps 707 mmHg 78%
    09:00 +29°C° 0 mm 2 mps 707 mmHg 69%
    10:00 +31°C° 0 mm 3 mps 707 mmHg 59%
    11:00 +34°C° 0 mm 3 mps 707 mmHg 49%
    12:00 +35°C° 0 mm 3 mps 707 mmHg 47%
    13:00 +35°C° 0 mm 2 mps 707 mmHg 46%
    14:00 +36°C° 0 mm 2 mps 706 mmHg 45%
    15:00 +35°C° 0.1 mm 2 mps 706 mmHg 51%
    16:00 +34°C° 0.1 mm 2 mps 705 mmHg 58%
    17:00 +32°C° 0.1 mm 2 mps 705 mmHg 64%
    18:00 +30°C° 0.1 mm 2 mps 705 mmHg 70%
    19:00 +28°C° 0.1 mm 1 mps 705 mmHg 76%
    20:00 +26°C° 0.1 mm 1 mps 705 mmHg 82%
    21:00 +25°C° 0.2 mm 1 mps 705 mmHg 84%
    22:00 +24°C° 0.2 mm 1 mps 705 mmHg 85%
    23:00 +24°C° 0.2 mm 1 mps 705 mmHg 87%

    Day after tomorrow, 3 June, Wednesday

    Time Temperature Precipitation Wind Pressure Humidity
    00:00 +24°C° 0 mm 1 mps 705 mmHg 87%
    01:00 +23°C° 0 mm 1 mps 705 mmHg 88%
    02:00 +23°C° 0 mm 1 mps 705 mmHg 88%
    03:00 +23°C° 0 mm 1 mps 705 mmHg 89%
    04:00 +22°C° 0 mm 1 mps 705 mmHg 91%
    05:00 +22°C° 0 mm 1 mps 705 mmHg 92%
    06:00 +24°C° 0 mm 2 mps 705 mmHg 87%
    07:00 +25°C° 0 mm 3 mps 706 mmHg 82%
    08:00 +26°C° 0 mm 3 mps 707 mmHg 77%
    09:00 +28°C° 0 mm 3 mps 707 mmHg 69%
    10:00 +30°C° 0 mm 3 mps 707 mmHg 61%
    11:00 +33°C° 0 mm 3 mps 707 mmHg 53%
    12:00 +34°C° 0 mm 2 mps 706 mmHg 52%
    13:00 +34°C° 0 mm 2 mps 706 mmHg 52%
    14:00 +34°C° 0 mm 2 mps 705 mmHg 51%
    15:00 +32°C° 0 mm 2 mps 705 mmHg 57%
    16:00 +31°C° 0 mm 2 mps 705 mmHg 62%
    17:00 +31°C° 0 mm 1 mps 705 mmHg 67%
    18:00 +29°C° 0 mm 1 mps 705 mmHg 72%
    19:00 +27°C° 0 mm 1 mps 704 mmHg 77%
    20:00 +26°C° 0 mm 1 mps 704 mmHg 82%
    21:00 +25°C° 0 mm 1 mps 705 mmHg 82%
    22:00 +25°C° 0 mm 1 mps 705 mmHg 83%
    23:00 +24°C° 0 mm 1 mps 705 mmHg 83%

    4 June, Thursday

    Time Temperature Precipitation Wind Pressure Humidity
    00:00 +24°C° 0 mm 1 mps 705 mmHg 84%
    01:00 +23°C° 0 mm 1 mps 705 mmHg 85%
    02:00 +23°C° 0 mm 2 mps 705 mmHg 87%
    03:00 +23°C° 0 mm 2 mps 705 mmHg 88%
    04:00 +23°C° 0 mm 2 mps 705 mmHg 89%
    05:00 +23°C° 0 mm 2 mps 705 mmHg 90%
    06:00 +24°C° 0 mm 2 mps 706 mmHg 86%
    07:00 +25°C° 0 mm 2 mps 706 mmHg 83%
    08:00 +26°C° 0 mm 2 mps 707 mmHg 79%
    09:00 +29°C° 0 mm 2 mps 707 mmHg 70%
    10:00 +31°C° 0 mm 3 mps 707 mmHg 61%
    11:00 +34°C° 0 mm 3 mps 707 mmHg 52%
    12:00 +35°C° 0.1 mm 3 mps 707 mmHg 50%
    13:00 +35°C° 0.1 mm 3 mps 706 mmHg 49%
    14:00 +35°C° 0.1 mm 3 mps 706 mmHg 48%
    15:00 +34°C° 0.1 mm 2 mps 706 mmHg 54%
    16:00 +34°C° 0.1 mm 2 mps 705 mmHg 59%
    17:00 +32°C° 0.1 mm 2 mps 705 mmHg 64%
    18:00 +30°C° 0.1 mm 2 mps 705 mmHg 71%
    19:00 +28°C° 0.1 mm 2 mps 705 mmHg 77%
    20:00 +26°C° 0.1 mm 2 mps 705 mmHg 84%
    21:00 +25°C° 0.1 mm 1 mps 706 mmHg 85%
    22:00 +25°C° 0.1 mm 1 mps 706 mmHg 87%
    23:00 +24°C° 0.1 mm 1 mps 706 mmHg 89%

    5 June, Friday

    Time Temperature Precipitation Wind Pressure Humidity
    00:00 +24°C° 0 mm 1 mps 706 mmHg 89%
    01:00 +23°C° 0 mm 1 mps 706 mmHg 89%
    02:00 +23°C° 0 mm 1 mps 706 mmHg 89%
    03:00 +23°C° 0 mm 2 mps 706 mmHg 90%
    04:00 +23°C° 0 mm 2 mps 706 mmHg 91%
    05:00 +22°C° 0 mm 3 mps 706 mmHg 91%
    06:00 +24°C° 0 mm 3 mps 707 mmHg 87%
    07:00 +25°C° 0 mm 3 mps 707 mmHg 83%
    08:00 +26°C° 0 mm 3 mps 708 mmHg 78%
    09:00 +28°C° 0 mm 3 mps 708 mmHg 70%
    10:00 +30°C° 0 mm 3 mps 708 mmHg 63%
    11:00 +33°C° 0 mm 3 mps 708 mmHg 55%
    12:00 +34°C° 0 mm 3 mps 707 mmHg 53%
    13:00 +34°C° 0 mm 2 mps 707 mmHg 51%
    14:00 +35°C° 0 mm 2 mps 706 mmHg 49%
    15:00 +34°C° 0 mm 2 mps 706 mmHg 54%
    16:00 +32°C° 0 mm 2 mps 706 mmHg 60%
    17:00 +32°C° 0 mm 1 mps 705 mmHg 65%
    18:00 +30°C° 0.1 mm 1 mps 705 mmHg 71%
    19:00 +28°C° 0.1 mm 1 mps 705 mmHg 77%
    20:00 +26°C° 0.1 mm 1 mps 706 mmHg 83%
    21:00 +25°C° 0.3 mm 1 mps 706 mmHg 85%
    22:00 +22°C° 0.3 mm 0 mps 706 mmHg 87%
    23:00 +22°C° 0.3 mm 0 mps 706 mmHg 89%

    6 June, Saturday

    Time Temperature Precipitation Wind Pressure Humidity
    00:00 +23°C° 0.2 mm 1 mps 706 mmHg 90%
    01:00 +23°C° 0.2 mm 1 mps 706 mmHg 91%
    02:00 +23°C° 0.2 mm 2 mps 706 mmHg 92%
    03:00 +21°C° 0.2 mm 2 mps 706 mmHg 93%
    04:00 +21°C° 0.2 mm 2 mps 706 mmHg 95%
    05:00 +21°C° 0.2 mm 2 mps 706 mmHg 96%
    06:00 +23°C° 0 mm 2 mps 707 mmHg 92%
    07:00 +24°C° 0 mm 2 mps 707 mmHg 88%
    08:00 +25°C° 0 mm 3 mps 708 mmHg 84%
    09:00 +28°C° 0 mm 3 mps 708 mmHg 73%
    10:00 +30°C° 0 mm 2 mps 708 mmHg 62%
    11:00 +34°C° 0 mm 2 mps 708 mmHg 51%
    12:00 +35°C° 0 mm 2 mps 708 mmHg 48%
    13:00 +35°C° 0 mm 2 mps 707 mmHg 46%
    14:00 +35°C° 0 mm 1 mps 707 mmHg 43%
    15:00 +34°C° 1.1 mm 2 mps 706 mmHg 53%
    16:00 +31°C° 1.1 mm 2 mps 706 mmHg 64%
    17:00 +29°C° 1.1 mm 2 mps 705 mmHg 75%
    18:00 +27°C° 1.5 mm 2 mps 705 mmHg 81%
    19:00 +25°C° 1.5 mm 1 mps 705 mmHg 86%
    20:00 +23°C° 1.5 mm 1 mps 705 mmHg 92%
    21:00 +23°C° 0 mm 1 mps 705 mmHg 92%
    22:00 +23°C° 0 mm 1 mps 705 mmHg 92%
    23:00 +22°C° 0 mm 1 mps 705 mmHg 91%
    Show more